| time (UTC) | temp C | wind direction | speed KPH | gust KPH | rain 1hr cm | rain 24hr cm | rain mn cm | humidity % | barometer mb |
| 20260831164004 | 32 | 227 | 1.6 | 6.4 | 0.00 | 0.00 | 0.00 | 63 | 1018.3 |
| 20260831163503 | 32 | 268 | 1.6 | 9.7 | 0.00 | 0.00 | 0.00 | 63 | 1018.2 |
| 20260831163004 | 32 | 233 | 1.6 | 9.7 | 0.00 | 0.00 | 0.00 | 62 | 1018.2 |
| 20260831162504 | 32 | 183 | 1.6 | 8.0 | 0.00 | 0.00 | 0.00 | 63 | 1018.3 |
| 20260831161503 | 31 | 202 | 1.6 | 6.4 | 0.00 | 0.00 | 0.00 | 65 | 1018.3 |
| 20260831160004 | 31 | 225 | 1.6 | 9.7 | 0.00 | 0.00 | 0.00 | 67 | 1018.3 |
| 20260831155504 | 31 | 183 | 1.6 | 9.7 | 0.00 | 0.00 | 0.00 | 67 | 1018.2 |
| 20260831155004 | 31 | 117 | 1.6 | 11.3 | 0.00 | 0.00 | 0.00 | 68 | 1018.3 |
| 20260831154504 | 31 | 116 | 1.6 | 11.3 | 0.00 | 0.00 | 0.00 | 66 | 1018.2 |
| 20260831153503 | 31 | 140 | 1.6 | 4.8 | 0.00 | 0.00 | 0.00 | 73 | 1018.3 |
| 20260831153004 | 30 | 140 | 1.6 | 6.4 | 0.00 | 0.00 | 0.00 | 72 | 1018.2 |
| 20260831152504 | 30 | 139 | 1.6 | 6.4 | 0.00 | 0.00 | 0.00 | 73 | 1018.2 |
| 20260831151503 | 30 | 136 | 1.6 | 6.4 | 0.00 | 0.00 | 0.00 | 75 | 1018.1 |
| 20260831151004 | 30 | 169 | 1.6 | 6.4 | 0.00 | 0.00 | 0.00 | 76 | 1018.1 |
| 20260831150504 | 29 | 196 | 1.6 | 8.0 | 0.00 | 0.00 | 0.00 | 77 | 1018.1 |
| 20260831150004 | 29 | 199 | 1.6 | 8.0 | 0.00 | 0.00 | 0.00 | 80 | 1018.0 |
| 20260831145504 | 28 | 190 | 1.6 | 8.0 | 0.00 | 0.00 | 0.00 | 81 | 1018.0 |
| 20260831145004 | 28 | 182 | 1.6 | 6.4 | 0.00 | 0.00 | 0.00 | 81 | 1017.9 |
| 20260831144504 | 28 | 177 | 1.6 | 8.0 | 0.00 | 0.00 | 0.00 | 81 | 1018.0 |
| 20260831143503 | 28 | 203 | 1.6 | 9.7 | 0.00 | 0.00 | 0.00 | 80 | 1017.9 |
| 20260831143004 | 28 | 200 | 1.6 | 9.7 | 0.00 | 0.00 | 0.00 | 82 | 1017.8 |
| 20260831142504 | 28 | 189 | 1.6 | 6.4 | 0.00 | 0.00 | 0.00 | 83 | 1017.8 |
| 20260831142004 | 27 | 0 | 0.0 | 4.8 | 0.00 | 0.00 | 0.00 | 84 | 1017.9 |
| 20260831141503 | 27 | 189 | 1.6 | 4.8 | 0.00 | 0.00 | 0.00 | 84 | 1017.9 |
| 20260831141004 | 27 | 189 | 1.6 | 4.8 | 0.00 | 0.00 | 0.00 | 85 | 1017.8 |
| 20260831140504 | 27 | 189 | 1.6 | 8.0 | 0.00 | 0.00 | 0.00 | 86 | 1017.7 |
| 20260831140004 | 27 | 0 | 0.0 | 8.0 | 0.00 | 0.00 | 0.00 | 86 | 1017.7 |
| 20260831135503 | 27 | 189 | 1.6 | 6.4 | 0.00 | 0.00 | 0.00 | 88 | 1017.6 |
| 20260831134504 | 26 | 0 | 0.0 | 4.8 | 0.00 | 0.00 | 0.00 | 89 | 1017.6 |
| 20260831134004 | 26 | 0 | 0.0 | 6.4 | 0.00 | 0.00 | 0.00 | 89 | 1017.5 |
| 20260831133503 | 26 | 0 | 0.0 | 6.4 | 0.00 | 0.00 | 0.00 | 89 | 1017.4 |
| 20260831133004 | 26 | 0 | 0.0 | 4.8 | 0.00 | 0.00 | 0.00 | 89 | 1017.5 |
| 20260831132504 | 26 | 189 | 1.6 | 6.4 | 0.00 | 0.00 | 0.00 | 90 | 1017.4 |
| 20260831132005 | 25 | 189 | 1.6 | 6.4 | 0.00 | 0.00 | 0.00 | 90 | 1017.4 |
| 20260831131504 | 25 | 0 | 0.0 | 4.8 | 0.00 | 0.00 | 0.00 | 90 | 1017.4 |
| 20260831131004 | 25 | 0 | 0.0 | 4.8 | 0.00 | 0.00 | 0.00 | 90 | 1017.3 |
| 20260831130504 | 25 | 0 | 0.0 | 4.8 | 0.00 | 0.00 | 0.00 | 90 | 1017.2 |
| 20260831130004 | 25 | 0 | 0.0 | 3.2 | 0.00 | 0.00 | 0.00 | 90 | 1017.2 |
| 20260831125504 | 25 | 0 | 0.0 | 4.8 | 0.00 | 0.00 | 0.00 | 90 | 1017.2 |
| 20260831125004 | 25 | 0 | 0.0 | 4.8 | 0.00 | 0.00 | 0.00 | 90 | 1017.1 |
| 20260831124504 | 25 | 0 | 0.0 | 4.8 | 0.00 | 0.00 | 0.00 | 90 | 1017.0 |
| 20260831124003 | 25 | 0 | 0.0 | 4.8 | 0.00 | 0.00 | 0.00 | 90 | 1016.9 |
| 20260831123504 | 25 | 0 | 0.0 | 4.8 | 0.00 | 0.00 | 0.00 | 90 | 1016.9 |
| 20260831123004 | 25 | 0 | 0.0 | 4.8 | 0.00 | 0.00 | 0.00 | 90 | 1016.9 |
| 20260831122504 | 25 | 0 | 0.0 | 4.8 | 0.00 | 0.00 | 0.00 | 90 | 1016.8 |
| 20260831122004 | 25 | 0 | 0.0 | 4.8 | 0.00 | 0.00 | 0.00 | 90 | 1017.0 |
| 20260831121504 | 25 | 0 | 0.0 | 6.4 | 0.00 | 0.00 | 0.00 | 90 | 1017.0 |
| 20260831121004 | 25 | 0 | 0.0 | 6.4 | 0.00 | 0.00 | 0.00 | 90 | 1016.9 |
| 20260831120504 | 25 | 0 | 0.0 | 4.8 | 0.00 | 0.00 | 0.00 | 89 | 1016.9 |
| 20260831120003 | 25 | 0 | 0.0 | 3.2 | 0.00 | 0.00 | 0.00 | 89 | 1016.8 |
| 20260831115504 | 25 | 0 | 0.0 | 3.2 | 0.00 | 0.00 | 0.00 | 89 | 1016.8 |
| 20260831114504 | 25 | 0 | 0.0 | 6.4 | 0.00 | 0.00 | 0.00 | 89 | 1016.8 |
| 20260831114003 | 25 | 0 | 0.0 | 6.4 | 0.00 | 0.00 | 0.00 | 89 | 1016.8 |
| 20260831113004 | 25 | 187 | 1.6 | 9.7 | 0.00 | 0.00 | 0.00 | 89 | 1016.8 |
| 20260831112504 | 25 | 0 | 0.0 | 4.8 | 0.00 | 0.00 | 0.00 | 89 | 1016.8 |
| 20260831112003 | 25 | 0 | 0.0 | 3.2 | 0.00 | 0.00 | 0.00 | 89 | 1016.8 |
| 20260831111503 | 25 | 0 | 0.0 | 3.2 | 0.00 | 0.00 | 0.00 | 89 | 1016.7 |
| 20260831111004 | 25 | 0 | 0.0 | 9.7 | 0.00 | 0.00 | 0.00 | 89 | 1016.7 |
| 20260831105503 | 25 | 193 | 1.6 | 8.0 | 0.00 | 0.00 | 0.00 | 89 | 1016.5 |
| 20260831105003 | 25 | 196 | 1.6 | 8.0 | 0.00 | 0.00 | 0.00 | 89 | 1016.6 |
| 20260831104504 | 25 | 198 | 1.6 | 6.4 | 0.00 | 0.00 | 0.00 | 89 | 1016.7 |
| 20260831104004 | 25 | 0 | 0.0 | 4.8 | 0.00 | 0.00 | 0.00 | 89 | 1016.6 |
| 20260831103504 | 25 | 0 | 0.0 | 3.2 | 0.00 | 0.00 | 0.00 | 89 | 1016.6 |
| 20260831103003 | 25 | 0 | 0.0 | 4.8 | 0.00 | 0.00 | 0.00 | 88 | 1016.7 |
| 20260831102504 | 25 | 196 | 1.6 | 8.0 | 0.00 | 0.00 | 0.00 | 88 | 1016.6 |
| 20260831102004 | 25 | 195 | 1.6 | 8.0 | 0.00 | 0.00 | 0.00 | 88 | 1016.6 |
| 20260831101503 | 25 | 194 | 1.6 | 8.0 | 0.00 | 0.00 | 0.00 | 88 | 1016.7 |
| 20260831101004 | 25 | 193 | 1.6 | 6.4 | 0.00 | 0.00 | 0.00 | 88 | 1016.8 |
| 20260831100004 | 25 | 0 | 0.0 | 4.8 | 0.00 | 0.00 | 0.00 | 88 | 1016.7 |
| 20260831095004 | 25 | 0 | 0.0 | 4.8 | 0.00 | 0.00 | 0.00 | 88 | 1016.7 |
| 20260831094004 | 25 | 0 | 0.0 | 6.4 | 0.00 | 0.00 | 0.00 | 88 | 1016.7 |
| 20260831093503 | 25 | 0 | 0.0 | 4.8 | 0.00 | 0.00 | 0.00 | 88 | 1016.6 |
| 20260831093003 | 25 | 0 | 0.0 | 4.8 | 0.00 | 0.00 | 0.00 | 88 | 1016.6 |
| 20260831092504 | 25 | 0 | 0.0 | 6.4 | 0.00 | 0.00 | 0.00 | 88 | 1016.5 |
| 20260831091504 | 25 | 208 | 1.6 | 4.8 | 0.00 | 0.00 | 0.00 | 88 | 1016.5 |
| 20260831091003 | 25 | 214 | 1.6 | 11.3 | 0.00 | 0.00 | 0.00 | 88 | 1016.4 |
| 20260831090504 | 25 | 218 | 1.6 | 11.3 | 0.00 | 0.00 | 0.00 | 88 | 1016.4 |
| 20260831085504 | 26 | 225 | 1.6 | 6.4 | 0.00 | 0.00 | 0.00 | 87 | 1016.4 |
| 20260831085004 | 26 | 224 | 1.6 | 12.9 | 0.00 | 0.00 | 0.00 | 87 | 1016.5 |
| 20260831084504 | 26 | 214 | 1.6 | 12.9 | 0.00 | 0.00 | 0.00 | 87 | 1016.4 |
| 20260831084004 | 26 | 217 | 1.6 | 8.0 | 0.00 | 0.00 | 0.00 | 87 | 1016.5 |
| 20260831083503 | 26 | 224 | 1.6 | 6.4 | 0.00 | 0.00 | 0.00 | 87 | 1016.5 |
| 20260831083004 | 26 | 219 | 1.6 | 6.4 | 0.00 | 0.00 | 0.00 | 87 | 1016.4 |
| 20260831082504 | 26 | 207 | 1.6 | 6.4 | 0.00 | 0.00 | 0.00 | 87 | 1016.5 |
| 20260831081503 | 26 | 195 | 1.6 | 6.4 | 0.00 | 0.00 | 0.00 | 86 | 1016.5 |
| 20260831081004 | 26 | 0 | 0.0 | 6.4 | 0.00 | 0.00 | 0.00 | 86 | 1016.6 |
| 20260831080504 | 26 | 209 | 1.6 | 9.7 | 0.00 | 0.00 | 0.00 | 85 | 1016.5 |
| 20260831080004 | 26 | 224 | 1.6 | 9.7 | 0.00 | 0.00 | 0.00 | 85 | 1016.5 |
| 20260831075504 | 26 | 216 | 3.2 | 11.3 | 0.00 | 0.00 | 0.00 | 84 | 1016.5 |
| 20260831074504 | 26 | 188 | 1.6 | 8.0 | 0.00 | 0.00 | 0.00 | 82 | 1016.5 |
| 20260831074003 | 26 | 188 | 1.6 | 8.0 | 0.00 | 0.00 | 0.00 | 81 | 1016.4 |
| 20260831073004 | 26 | 0 | 0.0 | 4.8 | 0.00 | 0.00 | 0.00 | 80 | 1016.5 |
| 20260831072504 | 26 | 197 | 1.6 | 8.0 | 0.00 | 0.00 | 0.00 | 80 | 1016.6 |
| 20260831071503 | 27 | 185 | 1.6 | 6.4 | 0.00 | 0.00 | 0.00 | 79 | 1016.5 |
| 20260831070504 | 27 | 0 | 0.0 | 6.4 | 0.00 | 0.00 | 0.00 | 78 | 1016.5 |
| 20260831070004 | 27 | 0 | 0.0 | 6.4 | 0.00 | 0.00 | 0.00 | 78 | 1016.6 |
| 20260831065503 | 27 | 0 | 0.0 | 4.8 | 0.00 | 0.00 | 0.00 | 78 | 1016.6 |
| 20260831065004 | 27 | 0 | 0.0 | 4.8 | 0.00 | 0.00 | 0.00 | 78 | 1016.6 |
| 20260831064504 | 27 | 0 | 0.0 | 6.4 | 0.00 | 0.00 | 0.00 | 77 | 1016.6 |
| 20260831064003 | 27 | 0 | 0.0 | 6.4 | 0.00 | 0.00 | 0.00 | 77 | 1016.8 |
| 20260831063004 | 27 | 0 | 0.0 | 0.0 | 0.00 | 0.00 | 0.00 | 77 | 1016.7 |
| 20260831062504 | 27 | 0 | 0.0 | 3.2 | 0.00 | 0.00 | 0.00 | 77 | 1016.7 |
| 20260831062003 | 27 | 0 | 0.0 | 3.2 | 0.00 | 0.00 | 0.00 | 76 | 1016.6 |
| 20260831061503 | 27 | 0 | 0.0 | 3.2 | 0.00 | 0.00 | 0.00 | 76 | 1016.7 |
| 20260831061004 | 27 | 0 | 0.0 | 0.0 | 0.00 | 0.00 | 0.00 | 75 | 1016.6 |
| 20260831060504 | 28 | 0 | 0.0 | 0.0 | 0.00 | 0.00 | 0.00 | 75 | 1016.5 |
| 20260831060004 | 28 | 0 | 0.0 | 0.0 | 0.00 | 0.00 | 0.00 | 74 | 1016.5 |
| 20260831055503 | 28 | 0 | 0.0 | 3.2 | 0.00 | 0.00 | 0.00 | 74 | 1016.6 |
| 20260831055004 | 28 | 0 | 0.0 | 3.2 | 0.00 | 0.00 | 0.00 | 73 | 1016.5 |
| 20260831054504 | 28 | 0 | 0.0 | 3.2 | 0.00 | 0.00 | 0.00 | 73 | 1016.4 |
| 20260831054003 | 28 | 0 | 0.0 | 6.4 | 0.00 | 0.00 | 0.00 | 73 | 1016.4 |
| 20260831053503 | 28 | 241 | 1.6 | 6.4 | 0.00 | 0.00 | 0.00 | 72 | 1016.4 |
| 20260831053004 | 28 | 0 | 0.0 | 4.8 | 0.00 | 0.00 | 0.00 | 72 | 1016.4 |
| 20260831052004 | 28 | 207 | 1.6 | 9.7 | 0.00 | 0.00 | 0.00 | 71 | 1016.3 |
| 20260831051004 | 28 | 214 | 1.6 | 9.7 | 0.00 | 0.00 | 0.00 | 70 | 1016.2 |
| 20260831050504 | 28 | 0 | 0.0 | 6.4 | 0.00 | 0.00 | 0.00 | 69 | 1016.1 |
| 20260831050004 | 29 | 0 | 0.0 | 6.4 | 0.00 | 0.00 | 0.00 | 69 | 1016.2 |
| 20260831045504 | 29 | 0 | 0.0 | 8.0 | 0.00 | 0.00 | 0.00 | 68 | 1016.2 |
| 20260831045003 | 29 | 227 | 1.6 | 8.0 | 0.00 | 0.00 | 0.00 | 68 | 1016.1 |
| 20260831044504 | 29 | 232 | 1.6 | 8.0 | 0.00 | 0.00 | 0.00 | 68 | 1016.1 |
| 20260831044004 | 29 | 214 | 1.6 | 8.0 | 0.00 | 0.00 | 0.00 | 67 | 1016.0 |
| 20260831043504 | 29 | 191 | 1.6 | 6.4 | 0.00 | 0.00 | 0.00 | 67 | 1016.1 |
| 20260831043004 | 29 | 202 | 1.6 | 11.3 | 0.00 | 0.00 | 0.00 | 66 | 1016.1 |
| 20260831042504 | 30 | 214 | 1.6 | 11.3 | 0.00 | 0.00 | 0.00 | 66 | 1016.1 |
| 20260831042003 | 30 | 218 | 1.6 | 6.4 | 0.00 | 0.00 | 0.00 | 65 | 1016.0 |
| 20260831041503 | 30 | 214 | 1.6 | 8.0 | 0.00 | 0.00 | 0.00 | 65 | 1016.1 |
| 20260831041004 | 30 | 212 | 1.6 | 14.5 | 0.00 | 0.00 | 0.00 | 64 | 1016.1 |
| 20260831040504 | 30 | 210 | 1.6 | 14.5 | 0.00 | 0.00 | 0.00 | 64 | 1016.1 |
| 20260831040004 | 30 | 207 | 1.6 | 9.7 | 0.00 | 0.00 | 0.00 | 64 | 1016.1 |
| 20260831035504 | 30 | 203 | 1.6 | 6.4 | 0.00 | 0.00 | 0.00 | 64 | 1016.0 |
| 20260831035004 | 30 | 168 | 1.6 | 9.7 | 0.00 | 0.00 | 0.00 | 64 | 1016.0 |
| 20260831034504 | 30 | 101 | 1.6 | 12.9 | 0.00 | 0.00 | 0.00 | 64 | 1016.0 |
| 20260831034003 | 30 | 84 | 1.6 | 12.9 | 0.00 | 0.00 | 0.00 | 64 | 1015.9 |
| 20260831033504 | 30 | 86 | 1.6 | 8.0 | 0.00 | 0.00 | 0.00 | 64 | 1015.8 |
| 20260831033004 | 30 | 103 | 1.6 | 11.3 | 0.00 | 0.00 | 0.00 | 64 | 1015.7 |
| 20260831032003 | 30 | 107 | 3.2 | 8.0 | 0.00 | 0.00 | 0.00 | 63 | 1015.6 |
| 20260831031504 | 30 | 219 | 3.2 | 9.7 | 0.00 | 0.00 | 0.00 | 63 | 1015.5 |
| 20260831031004 | 30 | 199 | 3.2 | 9.7 | 0.00 | 0.00 | 0.00 | 63 | 1015.5 |
| 20260831030503 | 30 | 100 | 3.2 | 11.3 | 0.00 | 0.00 | 0.00 | 63 | 1015.4 |
| 20260831030004 | 30 | 105 | 3.2 | 11.3 | 0.00 | 0.00 | 0.00 | 63 | 1015.3 |
| 20260831025504 | 30 | 102 | 3.2 | 14.5 | 0.00 | 0.00 | 0.00 | 62 | 1015.3 |
| 20260831025004 | 31 | 118 | 1.6 | 14.5 | 0.00 | 0.00 | 0.00 | 63 | 1015.2 |
| 20260831024503 | 31 | 225 | 1.6 | 4.8 | 0.00 | 0.00 | 0.00 | 63 | 1015.1 |
| 20260831024004 | 31 | 226 | 1.6 | 4.8 | 0.00 | 0.00 | 0.00 | 63 | 1015.1 |
| 20260831023504 | 31 | 124 | 1.6 | 8.0 | 0.00 | 0.00 | 0.00 | 63 | 1015.1 |
| 20260831023003 | 31 | 117 | 3.2 | 8.0 | 0.00 | 0.00 | 0.00 | 62 | 1015.0 |
| 20260831022503 | 31 | 137 | 1.6 | 8.0 | 0.00 | 0.00 | 0.00 | 61 | 1014.9 |
| 20260831021003 | 31 | 138 | 3.2 | 11.3 | 0.00 | 0.00 | 0.00 | 58 | 1014.6 |
| 20260831020503 | 31 | 143 | 3.2 | 11.3 | 0.00 | 0.00 | 0.00 | 57 | 1014.5 |
| 20260831015504 | 31 | 95 | 1.6 | 14.5 | 0.00 | 0.00 | 0.00 | 54 | 1014.3 |
| 20260831015003 | 31 | 0 | 0.0 | 1.6 | 0.00 | 0.00 | 0.00 | 51 | 1014.2 |
| 20260831014504 | 31 | 0 | 0.0 | 0.0 | 0.00 | 0.00 | 0.00 | 51 | 1014.0 |
| 20260831014004 | 32 | 0 | 0.0 | 0.0 | 0.00 | 0.00 | 0.00 | 51 | 1013.9 |
| 20260831013503 | 32 | 0 | 0.0 | 1.6 | 0.00 | 0.00 | 0.00 | 50 | 1013.9 |
| 20260831013003 | 32 | 0 | 0.0 | 1.6 | 0.00 | 0.00 | 0.00 | 50 | 1013.8 |
| 20260831012004 | 32 | 101 | 1.6 | 8.0 | 0.00 | 0.00 | 0.00 | 49 | 1013.7 |
| 20260831011504 | 32 | 0 | 0.0 | 8.0 | 0.00 | 0.00 | 0.00 | 49 | 1013.7 |
| 20260831011003 | 32 | 0 | 0.0 | 4.8 | 0.00 | 0.00 | 0.00 | 50 | 1013.7 |
| 20260831010504 | 32 | 0 | 0.0 | 4.8 | 0.00 | 0.00 | 0.00 | 49 | 1013.8 |
| 20260831010004 | 33 | 0 | 0.0 | 4.8 | 0.00 | 0.00 | 0.00 | 49 | 1013.8 |
| 20260831005004 | 33 | 0 | 0.0 | 1.6 | 0.00 | 0.00 | 0.00 | 49 | 1013.7 |
| 20260831004504 | 33 | 0 | 0.0 | 0.0 | 0.00 | 0.00 | 0.00 | 49 | 1013.7 |
| 20260831004004 | 33 | 0 | 0.0 | 3.2 | 0.00 | 0.00 | 0.00 | 49 | 1013.7 |
| 20260831003503 | 33 | 0 | 0.0 | 3.2 | 0.00 | 0.00 | 0.00 | 48 | 1013.7 |
| 20260831001503 | 33 | 0 | 0.0 | 4.8 | 0.00 | 0.00 | 0.00 | 47 | 1013.6 |
| 20260831001003 | 33 | 0 | 0.0 | 3.2 | 0.00 | 0.00 | 0.00 | 47 | 1013.5 |
| 20260831000504 | 33 | 0 | 0.0 | 3.2 | 0.00 | 0.00 | 0.00 | 47 | 1013.6 |
| 20260830235503 | 34 | 98 | 1.6 | 9.7 | 0.00 | 0.00 | 0.00 | 45 | 1013.6 |
| 20260830235003 | 34 | 97 | 1.6 | 9.7 | 0.00 | 0.00 | 0.00 | 44 | 1013.6 |
| 20260830234504 | 35 | 93 | 1.6 | 8.0 | 0.00 | 0.00 | 0.00 | 43 | 1013.6 |
| 20260830234004 | 35 | 90 | 1.6 | 8.0 | 0.00 | 0.00 | 0.00 | 43 | 1013.7 |
| 20260830233503 | 35 | 88 | 3.2 | 9.7 | 0.00 | 0.00 | 0.00 | 43 | 1013.6 |
| 20260830232504 | 35 | 113 | 3.2 | 11.3 | 0.00 | 0.00 | 0.00 | 43 | 1013.6 |
| 20260830232003 | 36 | 108 | 3.2 | 11.3 | 0.00 | 0.00 | 0.00 | 42 | 1013.6 |
| 20260830231503 | 36 | 109 | 1.6 | 8.0 | 0.00 | 0.00 | 0.00 | 43 | 1013.6 |
| 20260830231004 | 35 | 117 | 1.6 | 8.0 | 0.00 | 0.00 | 0.00 | 42 | 1013.6 |
| 20260830230004 | 36 | 137 | 1.6 | 6.4 | 0.00 | 0.00 | 0.00 | 42 | 1013.5 |
| 20260830225004 | 36 | 117 | 1.6 | 9.7 | 0.00 | 0.00 | 0.00 | 41 | 1013.7 |
| 20260830224504 | 36 | 112 | 1.6 | 9.7 | 0.00 | 0.00 | 0.00 | 41 | 1013.7 |
| 20260830224003 | 36 | 170 | 1.6 | 4.8 | 0.00 | 0.00 | 0.00 | 41 | 1013.8 |
| 20260830223004 | 36 | 191 | 1.6 | 4.8 | 0.00 | 0.00 | 0.00 | 40 | 1013.7 |
| 20260830222504 | 36 | 192 | 1.6 | 4.8 | 0.00 | 0.00 | 0.00 | 42 | 1013.8 |
| 20260830221503 | 36 | 193 | 1.6 | 6.4 | 0.00 | 0.00 | 0.00 | 41 | 1013.9 |
| 20260830220504 | 36 | 129 | 1.6 | 6.4 | 0.00 | 0.00 | 0.00 | 41 | 1013.9 |
| 20260830220003 | 36 | 110 | 1.6 | 8.0 | 0.00 | 0.00 | 0.00 | 42 | 1013.9 |
| 20260830215504 | 36 | 106 | 3.2 | 11.3 | 0.00 | 0.00 | 0.00 | 44 | 1014.0 |
| 20260830215004 | 36 | 100 | 1.6 | 11.3 | 0.00 | 0.00 | 0.00 | 44 | 1014.0 |
| 20260830213004 | 36 | 113 | 3.2 | 8.0 | 0.00 | 0.00 | 0.00 | 43 | 1014.3 |
| 20260830212504 | 36 | 120 | 3.2 | 8.0 | 0.00 | 0.00 | 0.00 | 43 | 1014.4 |
| 20260830212003 | 36 | 120 | 1.6 | 8.0 | 0.00 | 0.00 | 0.00 | 44 | 1014.5 |
| 20260830211503 | 36 | 147 | 1.6 | 8.0 | 0.00 | 0.00 | 0.00 | 44 | 1014.6 |
| 20260830210503 | 36 | 197 | 3.2 | 8.0 | 0.00 | 0.00 | 0.00 | 44 | 1014.8 |
| 20260830210003 | 36 | 169 | 3.2 | 8.0 | 0.00 | 0.00 | 0.00 | 44 | 1014.8 |
| 20260830205504 | 36 | 171 | 1.6 | 8.0 | 0.00 | 0.00 | 0.00 | 45 | 1014.9 |
| 20260830205004 | 36 | 149 | 1.6 | 8.0 | 0.00 | 0.00 | 0.00 | 45 | 1015.0 |
| 20260830204503 | 36 | 135 | 3.2 | 8.0 | 0.00 | 0.00 | 0.00 | 46 | 1015.2 |
| 20260830204003 | 36 | 130 | 3.2 | 9.7 | 0.00 | 0.00 | 0.00 | 47 | 1015.1 |
| 20260830203004 | 35 | 183 | 1.6 | 8.0 | 0.00 | 0.00 | 0.00 | 48 | 1015.2 |
| 20260830202503 | 35 | 172 | 1.6 | 8.0 | 0.00 | 0.00 | 0.00 | 46 | 1015.3 |
| 20260830202003 | 36 | 167 | 1.6 | 4.8 | 0.00 | 0.00 | 0.00 | 48 | 1015.4 |
| 20260830201504 | 36 | 167 | 1.6 | 6.4 | 0.00 | 0.00 | 0.00 | 47 | 1015.5 |
| 20260830201004 | 36 | 125 | 1.6 | 11.3 | 0.00 | 0.00 | 0.00 | 48 | 1015.5 |
| 20260830200003 | 35 | 124 | 3.2 | 6.4 | 0.00 | 0.00 | 0.00 | 49 | 1015.6 |
| 20260830195504 | 35 | 148 | 3.2 | 9.7 | 0.00 | 0.00 | 0.00 | 48 | 1015.7 |
| 20260830195004 | 35 | 174 | 3.2 | 9.7 | 0.00 | 0.00 | 0.00 | 48 | 1015.8 |
| 20260830194503 | 35 | 203 | 3.2 | 11.3 | 0.00 | 0.00 | 0.00 | 49 | 1015.8 |
| 20260830193504 | 35 | 176 | 3.2 | 8.0 | 0.00 | 0.00 | 0.00 | 51 | 1016.0 |
| 20260830193003 | 35 | 209 | 1.6 | 6.4 | 0.00 | 0.00 | 0.00 | 51 | 1016.1 |
| 20260830192504 | 35 | 238 | 1.6 | 6.4 | 0.00 | 0.00 | 0.00 | 50 | 1016.2 |
| 20260830192004 | 35 | 240 | 3.2 | 8.0 | 0.00 | 0.00 | 0.00 | 52 | 1016.4 |
| 20260830191503 | 35 | 228 | 3.2 | 9.7 | 0.00 | 0.00 | 0.00 | 51 | 1016.4 |
| 20260830191004 | 35 | 192 | 3.2 | 9.7 | 0.00 | 0.00 | 0.00 | 53 | 1016.4 |
| 20260830190504 | 34 | 170 | 3.2 | 11.3 | 0.00 | 0.00 | 0.00 | 52 | 1016.5 |
| 20260830185503 | 34 | 173 | 3.2 | 11.3 | 0.00 | 0.00 | 0.00 | 52 | 1016.7 |
| 20260830184003 | 33 | 168 | 1.6 | 6.4 | 0.00 | 0.00 | 0.00 | 55 | 1017.0 |
| 20260830183013 | 33 | 135 | 1.6 | 8.0 | 0.00 | 0.00 | 0.00 | 55 | 1017.0 |
| 20260830182506 | 33 | 172 | 3.2 | 9.7 | 0.00 | 0.00 | 0.00 | 55 | 1017.1 |
| 20260830182003 | 33 | 167 | 3.2 | 9.7 | 0.00 | 0.00 | 0.00 | 55 | 1017.3 |
| 20260830181503 | 33 | 181 | 1.6 | 8.0 | 0.00 | 0.00 | 0.00 | 57 | 1017.3 |
| 20260830181004 | 33 | 189 | 1.6 | 6.4 | 0.00 | 0.00 | 0.00 | 56 | 1017.4 |
| 20260830180503 | 33 | 186 | 1.6 | 6.4 | 0.00 | 0.00 | 0.00 | 57 | 1017.5 |
| 20260830180003 | 33 | 187 | 1.6 | 6.4 | 0.00 | 0.00 | 0.00 | 58 | 1017.6 |
| 20260830175004 | 33 | 178 | 1.6 | 8.0 | 0.00 | 0.00 | 0.00 | 57 | 1018.0 |
| 20260830174504 | 33 | 140 | 1.6 | 8.0 | 0.00 | 0.00 | 0.00 | 58 | 1018.0 |
| 20260830174003 | 33 | 128 | 3.2 | 11.3 | 0.00 | 0.00 | 0.00 | 59 | 1018.1 |
| 20260830173504 | 32 | 112 | 3.2 | 11.3 | 0.00 | 0.00 | 0.00 | 59 | 1018.1 |
| 20260830173003 | 32 | 88 | 3.2 | 11.3 | 0.00 | 0.00 | 0.00 | 60 | 1018.1 |
| 20260830172503 | 32 | 104 | 3.2 | 9.7 | 0.00 | 0.00 | 0.00 | 60 | 1018.3 |
| 20260830172003 | 32 | 130 | 3.2 | 8.0 | 0.00 | 0.00 | 0.00 | 60 | 1018.3 |
| 20260830171504 | 32 | 125 | 3.2 | 8.0 | 0.00 | 0.00 | 0.00 | 60 | 1018.4 |
| 20260830171004 | 32 | 159 | 3.2 | 8.0 | 0.00 | 0.00 | 0.00 | 61 | 1018.5 |
| 20260830170503 | 32 | 208 | 1.6 | 6.4 | 0.00 | 0.00 | 0.00 | 62 | 1018.5 |
| 20260830170003 | 32 | 112 | 3.2 | 12.9 | 0.00 | 0.00 | 0.00 | 63 | 1018.5 |
| 20260830165504 | 32 | 94 | 3.2 | 12.9 | 0.00 | 0.00 | 0.00 | 61 | 1018.5 |
| 20260830165003 | 32 | 111 | 1.6 | 9.7 | 0.00 | 0.00 | 0.00 | 63 | 1018.5 |
| 20260830164503 | 32 | 140 | 1.6 | 8.0 | 0.00 | 0.00 | 0.00 | 64 | 1018.6 |